Radiation Dose at Monitoring Post of Fukushima Daini Nuclear Power Station
Date,Time,MP-1(microSv/h),MP-2(microSv/h),MP-3(microSv/h),MP-4(microSv/h),MP-5(microSv/h),MP-6(microSv/h),MP-7(microSv/h),Wind Direction,Wind Velocity(m/s),Rain
2020/04/15,00:00,0.178,0.160,0.264,0.241,0.254,0.136,0.083,west-northwest,3.5,No
2020/04/15,00:10,0.176,0.158,0.264,0.242,0.255,0.137,0.083,northwest,5.7,No
2020/04/15,00:20,0.176,0.160,0.265,0.242,0.254,0.136,0.083,west-northwest,5.1,No
2020/04/15,00:30,0.177,0.159,0.266,0.241,0.254,0.137,0.083,west,5.2,No
2020/04/15,00:40,0.178,0.159,0.265,0.241,0.254,0.136,0.084,west-northwest,3.8,No
2020/04/15,00:50,0.177,0.160,0.264,0.242,0.255,0.137,0.083,west,3.0,No
2020/04/15,01:00,0.176,0.160,0.265,0.242,0.253,0.136,0.083,west,1.3,No
2020/04/15,01:10,0.177,0.158,0.264,0.241,0.255,0.136,0.083,west-northwest,1.5,No
2020/04/15,01:20,0.177,0.160,0.265,0.241,0.255,0.136,0.083,northwest,2.5,No
2020/04/15,01:30,0.177,0.159,0.265,0.242,0.254,0.136,0.084,northwest,2.2,No
2020/04/15,01:40,0.177,0.159,0.265,0.241,0.254,0.136,0.082,northwest,2.3,No
2020/04/15,01:50,0.178,0.159,0.265,0.243,0.254,0.137,0.083,northwest,1.1,No
2020/04/15,02:00,0.177,0.159,0.266,0.242,0.254,0.136,0.083,northwest,2.2,No
2020/04/15,02:10,0.176,0.159,0.265,0.242,0.255,0.136,0.084,northwest,2.6,No
2020/04/15,02:20,0.177,0.159,0.266,0.241,0.254,0.137,0.083,west-northwest,2.7,No
2020/04/15,02:30,0.178,0.159,0.264,0.241,0.254,0.137,0.083,northwest,1.2,No
2020/04/15,02:40,0.178,0.158,0.266,0.242,0.255,0.137,0.083,north,0.9,No
2020/04/15,02:50,0.176,0.160,0.266,0.242,0.255,0.137,0.083,north,1.5,No
2020/04/15,03:00,0.176,0.159,0.264,0.241,0.254,0.137,0.083,northwest,1.6,No
2020/04/15,03:10,0.177,0.159,0.265,0.242,0.255,0.137,0.083,-,CALM,No
2020/04/15,03:20,0.177,0.159,0.264,0.243,0.254,0.136,0.082,northwest,0.9,No
2020/04/15,03:30,0.177,0.159,0.266,0.243,0.254,0.137,0.083,north-northwest,1.6,No
2020/04/15,03:40,0.177,0.160,0.265,0.241,0.254,0.136,0.083,-,CALM,No
2020/04/15,03:50,0.177,0.159,0.265,0.242,0.255,0.137,0.083,south-southeast,0.6,No
2020/04/15,04:00,0.177,0.159,0.264,0.241,0.254,0.136,0.083,south-southeast,1.0,No
2020/04/15,04:10,0.177,0.159,0.264,0.241,0.254,0.137,0.083,southeast,1.0,No
2020/04/15,04:20,0.177,0.159,0.265,0.242,0.254,0.137,0.083,-,CALM,No
2020/04/15,04:30,0.177,0.159,0.266,0.242,0.254,0.137,0.083,-,CALM,No
2020/04/15,04:40,0.178,0.158,0.266,0.241,0.255,0.136,0.084,-,CALM,No
2020/04/15,04:50,0.178,0.159,0.265,0.241,0.255,0.136,0.083,-,CALM,No
2020/04/15,05:00,0.177,0.160,0.265,0.242,0.254,0.136,0.083,-,CALM,No
2020/04/15,05:10,0.177,0.159,0.265,0.241,0.255,0.136,0.083,-,CALM,No
2020/04/15,05:20,0.178,0.159,0.265,0.242,0.255,0.137,0.083,-,CALM,No
2020/04/15,05:30,0.177,0.159,0.266,0.241,0.256,0.136,0.083,-,CALM,No
2020/04/15,05:40,0.177,0.159,0.265,0.241,0.254,0.137,0.084,-,CALM,No
2020/04/15,05:50,0.178,0.159,0.265,0.242,0.255,0.136,0.083,west-southwest,0.8,No
2020/04/15,06:00,0.177,0.158,0.265,0.242,0.254,0.136,0.083,west,1.0,No
2020/04/15,06:10,0.177,0.158,0.265,0.241,0.254,0.136,0.083,west,0.8,No
2020/04/15,06:20,0.176,0.160,0.266,0.242,0.255,0.136,0.084,southwest,0.8,No
2020/04/15,06:30,0.177,0.158,0.265,0.241,0.255,0.136,0.083,-,CALM,No
2020/04/15,06:40,0.178,0.159,0.265,0.240,0.255,0.136,0.084,southwest,0.9,No
2020/04/15,06:50,0.177,0.159,0.265,0.242,0.253,0.136,0.083,south,0.9,No
2020/04/15,07:00,0.177,0.159,0.265,0.242,0.254,0.136,0.083,southeast,1.4,No
2020/04/15,07:10,0.178,0.160,0.265,0.241,0.254,0.137,0.083,south-southwest,1.8,No
2020/04/15,07:20,0.177,0.159,0.264,0.240,0.254,0.135,0.084,south-southwest,2.3,No
2020/04/15,07:30,0.176,0.159,0.265,0.240,0.253,0.136,0.083,south-southwest,2.1,No
2020/04/15,07:40,0.177,0.158,0.263,0.241,0.255,0.136,0.083,south,1.9,No
2020/04/15,07:50,0.178,0.158,0.265,0.242,0.254,0.136,0.082,south,3.0,No
2020/04/15,08:00,0.177,0.158,0.265,0.241,0.255,0.136,0.083,south-southwest,3.1,No
2020/04/15,08:10,0.177,0.158,0.265,0.240,0.255,0.137,0.082,south,3.0,No
2020/04/15,08:20,0.176,0.158,0.263,0.242,0.253,0.136,0.082,south,2.9,No
2020/04/15,08:30,0.177,0.158,0.264,0.241,0.255,0.136,0.083,south-southeast,4.2,No
2020/04/15,08:40,0.175,0.159,0.262,0.241,0.254,0.136,0.083,south,4.5,No
2020/04/15,08:50,0.177,0.158,0.265,0.241,0.255,0.136,0.083,south-southeast,4.5,No
2020/04/15,09:00,0.176,0.158,0.263,0.240,0.254,0.137,0.082,south,4.4,No
2020/04/15,09:10,0.177,0.159,0.265,0.242,0.257,0.136,0.083,south-southeast,5.1,No
2020/04/15,09:20,0.176,0.158,0.263,0.240,0.255,0.136,0.082,south-southeast,5.5,No
2020/04/15,09:30,0.177,0.160,0.264,0.242,0.256,0.135,0.082,south-southeast,6.1,No
2020/04/15,09:40,0.176,0.158,0.263,0.239,0.254,0.136,0.082,south-southeast,5.9,No
2020/04/15,09:50,0.177,0.159,0.266,0.242,0.255,0.135,0.083,south-southeast,7.1,No
2020/04/15,10:00,0.177,0.158,0.264,0.241,0.255,0.136,0.083,south-southeast,6.9,No
2020/04/15,10:10,0.178,0.159,0.266,0.242,0.255,0.136,0.083,south-southeast,7.3,No
2020/04/15,10:20,0.176,0.160,0.263,0.240,0.255,0.136,0.082,south-southeast,8.1,No
2020/04/15,10:30,0.176,0.158,0.267,0.242,0.255,0.136,0.083,south-southeast,10.0,No
2020/04/15,10:40,0.175,0.159,0.265,0.241,0.255,0.136,0.082,south-southeast,9.0,No
2020/04/15,10:50,0.178,0.158,0.266,0.241,0.254,0.136,0.083,south,9.6,No
2020/04/15,11:00,0.176,0.159,0.264,0.241,0.254,0.137,0.082,south,9.2,No
2020/04/15,11:10,0.176,0.158,0.266,0.242,0.257,0.136,0.083,south-southeast,7.7,No
2020/04/15,11:20,0.176,0.159,0.265,0.241,0.254,0.137,0.082,south,8.1,No
2020/04/15,11:30,0.177,0.159,0.265,0.242,0.256,0.136,0.082,south-southeast,8.7,No
2020/04/15,11:40,0.177,0.160,0.264,0.241,0.254,0.137,0.083,south-southeast,12.6,No
2020/04/15,11:50,0.176,0.160,0.265,0.243,0.257,0.136,0.083,south-southeast,10.6,No
2020/04/15,12:00,0.178,0.159,0.267,0.241,0.253,0.138,0.084,south-southeast,11.1,No
2020/04/15,12:10,0.177,0.160,0.264,0.244,0.257,0.136,0.083,south-southeast,9.0,No
2020/04/15,12:20,0.177,0.159,0.267,0.241,0.255,0.137,0.083,south,7.1,No
2020/04/15,12:30,0.176,0.160,0.264,0.243,0.256,0.137,0.082,south-southeast,6.6,No
2020/04/15,12:40,0.177,0.160,0.265,0.241,0.257,0.137,0.083,south-southeast,8.2,No
2020/04/15,12:50,0.177,0.159,0.266,0.242,0.253,0.137,0.082,south-southeast,6.9,No
2020/04/15,13:00,0.176,0.159,0.265,0.242,0.255,0.136,0.083,south,7.3,No
2020/04/15,13:10,0.178,0.160,0.267,0.242,0.254,0.137,0.083,south-southeast,7.6,No
2020/04/15,13:20,0.177,0.158,0.267,0.243,0.254,0.136,0.083,south-southeast,8.6,No
2020/04/15,13:30,0.176,0.160,0.265,0.242,0.257,0.136,0.083,south,7.2,No
2020/04/15,13:40,0.177,0.160,0.267,0.244,0.254,0.137,0.084,south,7.4,No
2020/04/15,13:50,0.177,0.161,0.265,0.242,0.256,0.135,0.084,south,7.3,No
2020/04/15,14:00,0.178,0.159,0.267,0.244,0.255,0.138,0.084,south,7.7,No
2020/04/15,14:10,0.177,0.160,0.267,0.242,0.254,0.136,0.083,south,7.8,No
2020/04/15,14:20,0.178,0.159,0.264,0.241,0.256,0.138,0.085,south,9.0,No
2020/04/15,14:30,0.178,0.159,0.267,0.240,0.255,0.136,0.083,south-southeast,8.1,No
2020/04/15,14:40,0.176,0.160,0.267,0.239,0.256,0.137,0.083,south-southeast,7.7,No
2020/04/15,14:50,0.177,0.160,0.267,0.240,0.257,0.136,0.083,south,8.3,No
2020/04/15,15:00,0.177,0.160,0.269,0.237,0.255,0.137,0.084,south,6.9,No
2020/04/15,15:10,0.177,0.160,0.267,0.238,0.256,0.138,0.083,south,6.0,No
2020/04/15,15:20,0.178,0.161,0.267,0.239,0.258,0.137,0.084,south,6.0,No
2020/04/15,15:30,0.177,0.160,0.268,0.241,0.254,0.137,0.083,south,6.3,No
2020/04/15,15:40,0.177,0.159,0.266,0.243,0.255,0.137,0.084,south,6.5,No
2020/04/15,15:50,0.178,0.160,0.269,0.243,0.256,0.136,0.084,south,5.9,No
2020/04/15,16:00,0.176,0.159,0.266,0.244,0.254,0.136,0.083,south,6.1,No
2020/04/15,16:10,0.177,0.161,0.269,0.244,0.256,0.137,0.083,south,6.3,No
2020/04/15,16:20,0.178,0.161,0.267,0.243,0.257,0.137,0.083,south,8.5,No
2020/04/15,16:30,0.177,0.161,0.270,0.245,0.254,0.137,0.084,south,8.6,No
2020/04/15,16:40,0.178,0.160,0.266,0.243,0.257,0.137,0.083,south,8.3,No
2020/04/15,16:50,0.177,0.161,0.269,0.244,0.256,0.138,0.084,south,7.7,No
2020/04/15,17:00,0.178,0.159,0.267,0.243,0.258,0.137,0.083,south,6.7,No
2020/04/15,17:10,0.178,0.161,0.269,0.246,0.256,0.137,0.084,south,5.0,No
2020/04/15,17:20,0.177,0.160,0.268,0.242,0.257,0.136,0.083,south,4.9,No
2020/04/15,17:30,0.178,0.160,0.268,0.245,0.257,0.137,0.084,south,4.2,No
2020/04/15,17:40,0.177,0.160,0.268,0.244,0.257,0.137,0.083,south,2.9,No
2020/04/15,17:50,0.178,0.160,0.268,0.244,0.256,0.137,0.083,south-southwest,1.5,No
2020/04/15,18:00,0.177,0.161,0.268,0.244,0.258,0.137,0.083,west-northwest,0.8,No
2020/04/15,18:10,0.178,0.160,0.267,0.245,0.256,0.138,0.084,northwest,2.5,No
2020/04/15,18:20,0.178,0.160,0.268,0.245,0.257,0.137,0.083,west-northwest,4.9,No
2020/04/15,18:30,0.179,0.161,0.269,0.245,0.255,0.137,0.084,west-northwest,3.6,No
2020/04/15,18:40,0.178,0.161,0.267,0.244,0.257,0.137,0.083,west-northwest,2.5,No
2020/04/15,18:50,0.177,0.160,0.267,0.244,0.255,0.138,0.083,northwest,3.8,No
2020/04/15,19:00,0.179,0.161,0.267,0.244,0.256,0.138,0.083,northwest,5.9,No
2020/04/15,19:10,0.177,0.160,0.268,0.244,0.257,0.139,0.084,northwest,5.4,No
2020/04/15,19:20,0.179,0.160,0.270,0.244,0.255,0.139,0.084,north-northwest,3.9,No
2020/04/15,19:30,0.178,0.162,0.269,0.244,0.257,0.138,0.084,northwest,4.8,No
2020/04/15,19:40,0.178,0.160,0.268,0.245,0.256,0.137,0.084,northwest,5.9,No
2020/04/15,19:50,0.178,0.161,0.268,0.245,0.257,0.137,0.084,west-northwest,4.8,No
2020/04/15,20:00,0.177,0.161,0.268,0.244,0.256,0.138,0.084,west-northwest,3.1,No
2020/04/15,20:10,0.178,0.160,0.269,0.245,0.256,0.138,0.084,northwest,2.4,No
2020/04/15,20:20,0.178,0.161,0.269,0.243,0.257,0.138,0.084,northwest,3.2,No
2020/04/15,20:30,0.178,0.161,0.268,0.244,0.255,0.138,0.083,northwest,2.7,No
2020/04/15,20:40,0.178,0.160,0.269,0.245,0.258,0.138,0.083,north,1.7,No
2020/04/15,20:50,0.177,0.160,0.269,0.243,0.257,0.138,0.084,north-northeast,2.3,No
2020/04/15,21:00,0.177,0.162,0.267,0.243,0.255,0.138,0.084,northeast,3.8,No
2020/04/15,21:10,0.179,0.161,0.269,0.245,0.257,0.138,0.084,north-northeast,3.5,No
2020/04/15,21:20,0.178,0.161,0.269,0.244,0.256,0.138,0.085,north-northeast,3.0,No
2020/04/15,21:30,0.178,0.161,0.268,0.244,0.257,0.138,0.084,north-northwest,2.2,No
2020/04/15,21:40,0.178,0.162,0.269,0.246,0.257,0.137,0.084,north-northwest,2.0,No
2020/04/15,21:50,0.177,0.160,0.268,0.245,0.255,0.138,0.083,north,1.9,No
2020/04/15,22:00,0.178,0.161,0.267,0.245,0.256,0.138,0.084,north-northeast,2.6,No
2020/04/15,22:10,0.179,0.162,0.269,0.244,0.256,0.138,0.084,north,2.8,No
2020/04/15,22:20,0.178,0.160,0.270,0.244,0.257,0.138,0.083,north-northeast,2.6,No
2020/04/15,22:30,0.179,0.160,0.269,0.244,0.257,0.138,0.083,north-northeast,2.9,No
2020/04/15,22:40,0.178,0.162,0.269,0.245,0.255,0.138,0.083,north-northeast,2.2,No
2020/04/15,22:50,0.178,0.160,0.269,0.244,0.256,0.137,0.084,north-northeast,1.8,No
2020/04/15,23:00,0.178,0.161,0.268,0.245,0.257,0.137,0.084,north-northeast,2.1,No
2020/04/15,23:10,0.179,0.160,0.267,0.246,0.256,0.138,0.083,north-northeast,2.5,No
2020/04/15,23:20,0.178,0.160,0.269,0.245,0.256,0.138,0.084,north-northeast,2.6,No
2020/04/15,23:30,0.178,0.160,0.268,0.244,0.256,0.138,0.083,north,3.6,No
2020/04/15,23:40,0.177,0.160,0.267,0.244,0.255,0.138,0.084,north-northeast,7.5,No
2020/04/15,23:50,0.178,0.160,0.268,0.244,0.256,0.138,0.084,north-northeast,4.7,No
